SITRO-AIS 6 (CHIRKIN)

Last updated on Sun Jun 21 2026 00:03:50 GMT+0000 (Coordinated Universal Time)

1 57192U 23091AC 26171.39296963 .00008649 00000+0 33853-3 0 9994 2 57192 97.5062 234.4251 0013089 96.6916 263.5812 15.25985001164772
UTC large
Height (km)
Speed (km/s)
/
Latitude / Longitude
Inclination (degrees)
Orbital Period (minutes)
Azimuth
Elevation
Range (km)
Doppler Factor

Next 0 passes for location: London (51.5072 / 0.1276)

No passes found over London.
SITRO-AIS 6 (CHIRKIN)